North Wilkesboro, NC

7:11 AM EST on January 19, 2018 (GMT -0500)
Wilkes County

Weather History for KUKF - January, 2014

Change the Weather History Date:

Saturday, January 4, 2014

  Actual Average Record
Temperature  
Mean Temperature 26 °F -  
Max Temperature 39 °F 48 °F 75 °F (2005)
Min Temperature 12 °F 26 °F 7 °F (1979)
Degree Days  
Heating Degree Days 40    
Moisture  
Dew Point 14 °F    
Average Humidity 62    
Maximum Humidity 93    
Minimum Humidity 35    
Precipitation  
Precipitation 0.00 in - - ()
Sea Level Pressure  
Sea Level Pressure 30.41 in    
Wind  
Wind Speed 1 mph (South)    
Max Wind Speed 10 mph    
Max Gust Speed 10 mph    
Visibility 10 miles    
Events      
Averages and records for this station are not official NWS values.
T = Trace of Precipitation, MM = Missing Value Source: NWS Daily Summary

Daily Weather History Graph

Daily Weather History Graph

Search for Another Location

Airport or City:

Trip Planner

Search our weather history database for the weather conditions in past years. The results will help you decide how hot, cold, wet, or windy it might be!

Date:

Astronomy

Jan. 04, 2014 Rise Set
Actual Time 7:35 AM EST 5:23 PM EST
Civil Twilight 7:07 AM EST 5:51 PM EST
Nautical Twilight 6:35 AM EST 6:23 PM EST
Astronomical Twilight 6:04 AM EST 6:54 PM EST
Moon 9:47 AM EST (1/4) 9:33 PM EST (1/4)
Length of Visible Light 10h 43m
Length of Day
9h 47m
Waxing Crescent, 15% of the Moon is Illuminated
Jan 4
Waxing Crescent
Jan 7
First Quarter
Jan 15
Full
Jan 24
Last Quarter
Jan 30
New

Hourly Weather History & Observations

Time (EST) Temp. Windchill Dew Point Humidity Pressure Visibility Wind Dir Wind Speed Gust Speed Precip Events Conditions
12:15 AM 17.6 °F - 8.6 °F 68% 30.47 in 10.0 mi Calm Calm - N/A   Clear
12:35 AM 17.6 °F - 10.4 °F 73% 30.46 in 10.0 mi Calm Calm - N/A   Clear
12:55 AM 17.6 °F - 10.4 °F 73% 30.46 in 10.0 mi Calm Calm - N/A   Clear
1:15 AM 17.6 °F - 10.4 °F 73% 30.46 in 10.0 mi Calm Calm - N/A   Clear
1:35 AM 15.8 °F - 10.4 °F 79% 30.46 in 10.0 mi Calm Calm - N/A   Clear
1:55 AM 15.8 °F - 8.6 °F 73% 30.46 in 10.0 mi Calm Calm - N/A   Clear
2:15 AM 15.8 °F - 10.4 °F 79% 30.47 in 10.0 mi Calm Calm - N/A   Clear
2:35 AM 15.8 °F - 10.4 °F 79% 30.47 in 10.0 mi Calm Calm - N/A   Clear
2:54 AM 14.0 °F - 8.6 °F 79% 30.47 in 10.0 mi Calm Calm - N/A   Clear
3:55 AM 14.0 °F - 10.4 °F 86% 30.48 in 10.0 mi Calm Calm - N/A   Clear
4:15 AM 14.0 °F - 10.4 °F 86% 30.47 in 10.0 mi Calm Calm - N/A   Clear
4:35 AM 14.0 °F - 12.2 °F 93% 30.47 in 10.0 mi Calm Calm - N/A   Clear
5:15 AM 14.0 °F - 10.4 °F 86% 30.47 in 10.0 mi Calm Calm - N/A   Clear
5:35 AM 14.0 °F - 12.2 °F 93% 30.48 in 10.0 mi Calm Calm - N/A   Clear
5:55 AM 14.0 °F - 12.2 °F 93% 30.48 in 10.0 mi Calm Calm - N/A   Clear
6:15 AM 12.2 °F - 10.4 °F 92% 30.48 in 10.0 mi Calm Calm - N/A   Clear
6:35 AM 14.0 °F - 10.4 °F 86% 30.48 in 10.0 mi Calm Calm - N/A   Clear
6:55 AM 14.0 °F - 10.4 °F 86% 30.48 in 10.0 mi Calm Calm - N/A   Clear
7:15 AM 14.0 °F - 10.4 °F 86% 30.49 in 10.0 mi Calm Calm - N/A   Clear
7:35 AM 14.0 °F - 10.4 °F 86% 30.49 in 10.0 mi Calm Calm - N/A   Clear
7:55 AM 14.0 °F - 12.2 °F 93% 30.49 in 10.0 mi Calm Calm - N/A   Clear
8:35 AM 17.6 °F - 12.2 °F 79% 30.49 in 10.0 mi Calm Calm - N/A   Clear
8:55 AM 19.4 °F - 14.0 °F 80% 30.48 in 10.0 mi Calm Calm - N/A   Clear
9:15 AM 21.2 °F - 14.0 °F 74% 30.48 in 10.0 mi Calm Calm - N/A   Clear
9:55 AM 23.0 °F - 14.0 °F 68% 30.48 in 10.0 mi Calm Calm - N/A   Clear
10:15 AM 26.6 °F - 14.0 °F 59% 30.47 in 10.0 mi Calm Calm - N/A   Clear
10:35 AM 28.4 °F 24.6 °F 12.2 °F 51% 30.46 in 10.0 mi South 3.5 mph - N/A   Clear
10:55 AM 28.4 °F 23.3 °F 10.4 °F 47% 30.46 in 10.0 mi SSW 4.6 mph - N/A   Clear
11:15 AM 30.2 °F 26.7 °F 12.2 °F 47% 30.46 in 10.0 mi South 3.5 mph - N/A   Clear
11:35 AM 32.0 °F 27.5 °F 10.4 °F 41% 30.45 in 10.0 mi SSW 4.6 mph - N/A   Clear
11:55 AM 32.0 °F 28.7 °F 12.2 °F 44% 30.44 in 10.0 mi SW 3.5 mph - N/A   Clear
12:15 PM 32.0 °F - 12.2 °F 44% 30.42 in 10.0 mi Calm Calm - N/A   Clear
12:35 PM 33.8 °F 30.8 °F 10.4 °F 38% 30.40 in 10.0 mi SSW 3.5 mph - N/A   Clear
12:55 PM 33.8 °F 26.4 °F 10.4 °F 38% 30.39 in 10.0 mi SSW 9.2 mph - N/A   Clear
1:15 PM 35.6 °F 29.2 °F 10.4 °F 35% 30.38 in 10.0 mi SSW 8.1 mph - N/A   Clear
1:35 PM 35.6 °F 30.7 °F 10.4 °F 35% 30.38 in 10.0 mi SSW 5.8 mph - N/A   Clear
1:55 PM 37.4 °F 30.3 °F 12.2 °F 36% 30.37 in 10.0 mi SW 10.4 mph - N/A   Clear
2:15 PM 37.4 °F 32.8 °F 14.0 °F 38% 30.36 in 10.0 mi SW 5.8 mph - N/A   Clear
2:35 PM 39.2 °F 34.2 °F 17.6 °F 42% 30.36 in 10.0 mi South 6.9 mph - N/A   Clear
2:55 PM 37.4 °F 32.1 °F 19.4 °F 48% 30.36 in 10.0 mi SSW 6.9 mph 10.4 mph N/A   Mostly Cloudy
3:15 PM 37.4 °F 32.8 °F 19.4 °F 48% 30.36 in 10.0 mi South 5.8 mph - N/A   Overcast
3:35 PM 37.4 °F 32.8 °F 19.4 °F 48% 30.35 in 10.0 mi SSE 5.8 mph - N/A   Overcast
3:55 PM 37.4 °F 32.8 °F 19.4 °F 48% 30.35 in 10.0 mi SSW 5.8 mph - N/A   Overcast
4:15 PM 37.4 °F 33.8 °F 19.4 °F 48% 30.35 in 10.0 mi South 4.6 mph - N/A   Scattered Clouds
4:35 PM 37.4 °F 31.4 °F 19.4 °F 48% 30.35 in 10.0 mi South 8.1 mph - N/A   Clear
4:55 PM 35.6 °F 29.9 °F 17.6 °F 48% 30.35 in 10.0 mi SSE 6.9 mph - N/A   Clear
5:15 PM 33.8 °F 28.6 °F 17.6 °F 52% 30.35 in 10.0 mi SSE 5.8 mph - N/A   Mostly Cloudy
5:35 PM 32.0 °F 24.8 °F 17.6 °F 55% 30.36 in 10.0 mi SSE 8.1 mph - N/A   Overcast
5:55 PM 32.0 °F 27.5 °F 17.6 °F 55% 30.36 in 10.0 mi SE 4.6 mph - N/A   Mostly Cloudy
6:15 PM 32.0 °F 28.7 °F 17.6 °F 55% 30.36 in 10.0 mi SE 3.5 mph - N/A   Scattered Clouds
6:35 PM 32.0 °F - 17.6 °F 55% 30.35 in 10.0 mi Calm Calm - N/A   Scattered Clouds
6:55 PM 30.2 °F - 17.6 °F 60% 30.37 in 10.0 mi Calm Calm - N/A   Scattered Clouds
7:15 PM 30.2 °F - 17.6 °F 60% 30.36 in 10.0 mi Calm Calm - N/A   Mostly Cloudy
7:35 PM 32.0 °F - 17.6 °F 55% 30.36 in 10.0 mi Calm Calm - N/A   Overcast
7:55 PM 32.0 °F - 19.4 °F 60% 30.35 in 10.0 mi Calm Calm - N/A   Overcast
8:15 PM 32.0 °F - 17.6 °F 55% 30.36 in 10.0 mi Calm Calm - N/A   Overcast
8:35 PM 32.0 °F - 17.6 °F 55% 30.34 in 10.0 mi Calm Calm - N/A   Overcast
8:55 PM 32.0 °F - 17.6 °F 55% 30.34 in 10.0 mi Calm Calm - N/A   Overcast
9:15 PM 32.0 °F - 17.6 °F 55% 30.34 in 10.0 mi Calm Calm - N/A   Overcast
9:35 PM 32.0 °F - 19.4 °F 60% 30.32 in 10.0 mi Calm Calm - N/A   Overcast
9:55 PM 32.0 °F - 17.6 °F 55% 30.32 in 10.0 mi Calm Calm - N/A   Overcast
10:15 PM 32.0 °F - 19.4 °F 60% 30.32 in 10.0 mi Calm Calm - N/A   Overcast
10:35 PM 32.0 °F - 17.6 °F 55% 30.31 in 10.0 mi Calm Calm - N/A   Overcast
10:55 PM 32.0 °F - 19.4 °F 60% 30.30 in 10.0 mi Calm Calm - N/A   Overcast
11:15 PM 32.0 °F - 19.4 °F 60% 30.30 in 10.0 mi Calm Calm - N/A   Overcast
11:35 PM 32.0 °F - 19.4 °F 60% 30.29 in 10.0 mi Calm Calm - N/A   Overcast
11:55 PM 32.0 °F - 17.6 °F 55% 30.28 in 10.0 mi Calm Calm - N/A   Overcast